Location: Newark
(37.8333°N, 119.5000°W)
Time: 10:19:17
(UTC+00:00)

OTV 5 (USA 277) - Visible Passes

Search period start: 17 October 2019 00:00
Search period end: 27 October 2019 00:00
Orbit: 310 x 324 km, 54.5° (Epoch: 08 October)

Date Brightness Start Highest point End Pass type
(mag) Time Alt. Az. Time Alt. Az. Time Alt. Az.
17 Oct ? 13:28:22 10° NNW 13:30:42 24° NE 13:33:00 10° E visible
19 Oct ? 12:25:04 16° NNE 12:25:26 16° NNE 12:27:18 10° ENE visible
20 Oct ? 12:39:44 36° NNE 12:40:09 39° NE 12:42:44 10° ESE visible
21 Oct ? 12:54:32 56° WSW 12:54:43 58° SW 12:57:23 10° SSE visible
22 Oct ? 13:09:28 17° SW 13:09:28 17° SW 13:11:04 10° S visible
